Location: Mitre
(40.8000°S, 175.4500°E)
Time: 15:27:02
(UTC+00:00)

Daily predictions for brighter satellites

Satellite Brightness Start Highest point End
(mag) Time Altitude Azimuth Time Altitude Azimuth Time Altitude Azimuth
CZ-4C R/B 4.4 15:30:09 30° ESE 15:30:09 30° ESE 15:33:46 10° SE
Centaur D-1A AC-31 4.2 16:12:28 15° NNE 16:12:28 15° NNE 16:15:10 10° NE
CENTAUR R/B 4.2 16:26:14 10° N 16:34:06 39° ENE 16:40:51 10° SE
BREEZE-M DEB (TANK) 3.7 16:39:46 71° ESE 16:39:46 71° ESE 16:52:30 10° ENE
CZ-3 Stage 3 3.8 16:57:41 15° NE 16:57:41 15° NE 16:59:50 10° ENE
Cosmos 2219 Rocket 3.5 17:07:22 28° N 17:07:22 28° N 17:09:59 10° N
Cosmos 2237 Rocket 3.8 17:04:15 15° S 17:08:16 30° ESE 17:13:15 10° ENE
CZ-4C R/B 3.3 17:15:17 45° SW 17:15:17 45° SW 17:22:04 10° SSE
SMAP 4.2 17:12:37 10° NE 17:17:02 43° ESE 17:21:02 13° S
SL-19 R/B 4.1 17:13:18 10° N 17:19:02 69° WNW 17:19:09 69° W
COSMOS 2455 3.3 17:20:35 44° SSW 17:20:35 44° SSW 17:25:20 10° SSE
PSLV R/B 3.9 17:16:21 10° NNE 17:20:27 61° ESE 17:20:58 56° SE
Cosmos 2297 Rocket 2.7 17:17:21 10° N 17:22:54 59° ENE 17:28:30 10° SSE
Meteor 1-22 Rocket 4.4 17:18:49 13° S 17:23:34 64° E 17:28:52 10° NNE
COSMOS 2428 2.6 17:23:41 52° SSW 17:25:09 83° WNW 17:30:51 10° NNE
Cosmos 1300 4.1 17:23:53 24° SSE 17:25:21 34° ESE 17:28:38 10° NE
Cosmos 371 Rocket 3.9 17:23:01 10° N 17:27:43 55° ENE 17:32:27 10° SSE
CZ-3 R/B 3.7 17:21:56 26° WNW 17:31:32 42° NNW 17:38:50 10° NE
BlueWalker 3 2.5 17:36:38 47° SSE 17:36:54 48° SE 17:40:38 10° ENE
Cosmos 2208 Rocket 4.3 17:35:09 18° SSW 17:39:15 70° ESE 17:44:37 10° NNE
Meteor 2-10 Rocket 3.9 17:37:16 10° S 17:43:11 80° E 17:49:01 10° NNE
ISS -0.7 17:47:04 10° N 17:49:14 16° NE 17:51:24 10° E
Celestis-02/Orion 38 4.5 17:44:45 10° SSE 17:49:55 66° WSW 17:55:08 10° NW
Cosmos 1733 Rocket 4.0 17:45:50 10° S 17:50:06 48° E 17:54:20 10° NNE
Cosmos 1707 Rocket 4.0 17:46:22 10° N 17:50:44 63° E 17:55:12 10° SSE
Meteor 1-12 Rocket 4.3 17:46:43 10° S 17:52:38 85° E 17:58:35 10° N
SL-14 R/B 3.1 17:49:26 10° NNW 17:53:20 77° W 17:57:16 10° S
CORIOLIS 4.1 17:50:21 10° N 17:55:48 80° WNW 18:01:22 10° SSW
IRIDIUM 104 4.3 17:53:20 10° S 17:58:39 85° W 18:03:54 10° N
Cosmos 2322 4.3 17:57:45 32° W 17:58:50 35° WNW 18:03:59 10° NNW
Cosmos 1346 Rocket 2.7 17:59:44 36° SW 18:01:05 57° W 18:04:54 10° N
Meteor 1-21 4.3 17:56:12 10° N 18:01:49 81° E 18:07:35 10° SSE
Cosmos 2228 Rocket 3.0 17:57:31 10° N 18:01:58 87° W 18:06:33 10° S
USA 306 4.0 18:00:16 10° NNW 18:02:56 32° NE 18:06:04 10° ESE
COSMO-SKYMED 1 3.8 17:59:50 10° SSE 18:04:05 45° E 18:08:16 10° N
Cosmos 2266 Rocket 3.9 17:59:19 10° N 18:05:24 84° W 18:11:38 10° S
Cosmos 1570 Rocket 4.2 18:04:00 23° SW 18:07:02 49° WNW 18:12:05 10° N
IRIDIUM 114 4.3 18:02:31 10° S 18:07:48 70° W 18:13:00 10° N
Cosmos 1315 Rocket 2.8 18:04:28 10° N 18:08:20 79° E 18:12:19 10° SSE
Cosmos 1503 Rocket 4.1 18:04:11 10° NNW 18:09:27 81° ENE 18:14:52 10° SSE
Meteor 1-23 Rocket 4.2 18:04:14 10° NNW 18:09:43 55° WSW 18:15:17 10° S
Meteor 1-15 Rocket 4.4 18:05:38 10° SSW 18:11:11 49° W 18:16:36 10° NNW
NOSS 0 Rocket 4.0 18:07:22 18° SW 18:11:59 54° WNW 18:17:57 10° N
AQUARIUS 4.1 18:08:02 10° N 18:12:30 70° WNW 18:17:01 10° SSW
IGS 5A 4.4 18:08:39 10° NNE 18:12:36 48° ESE 18:16:35 10° S
Helios 1B rocket 3.2 18:12:13 10° NNE 18:16:02 49° ESE 18:19:52 10° S
USA 276 3.7 18:17:31 15° S 18:17:31 15° S 18:18:26 10° SSE
IRIDIUM 103 4.4 18:11:43 10° S 18:16:55 57° W 18:22:02 10° NNW
ADEOS Rocket 3.0 18:15:24 10° NNE 18:21:02 82° ESE 18:27:16 10° SSW
CZ-4B R/B 4.0 18:19:19 10° NNE 18:23:34 87° ESE 18:27:45 10° SSW
CENTAUR R/B 3.1 18:16:33 10° NW 18:24:44 53° SW 18:31:31 10° SSE
Cosmos 1818 3.7 18:20:52 10° SSW 18:26:13 74° ESE 18:31:35 10° NE
Cosmos 1953 3.3 18:24:11 10° S 18:28:02 48° E 18:31:49 10° NNE
Cosmos 1758 3.8 18:25:49 14° SSW 18:28:40 34° W 18:32:11 10° NNW
Cosmos 1486 Rocket 4.4 18:26:07 10° NW 18:31:06 41° WSW 18:36:08 10° S
Cosmos 332 Rocket 3.9 18:27:27 10° NNW 18:32:15 83° ENE 18:37:08 10° SSE
Cosmos 1461 4.3 18:32:35 18° WSW 18:33:46 21° SW 18:37:03 10° S
Intercosmos 25 Rocket 4.0 18:30:19 10° SSW 18:34:29 74° W 18:41:07 10° N
Cosmos 304 Rocket 4.2 18:30:56 10° NW 18:35:25 38° WSW 18:39:57 10° S
CZ-2C R/B 2.8 18:38:47 10° N 18:42:19 48° W 18:45:52 10° SSW
Cosmos 2263 Rocket 3.0 18:42:44 10° N 18:48:18 59° ENE 18:53:57 10° SSE
S3M 4.4 18:42:58 10° SSW 18:48:58 44° W 18:54:58 10° NNW
Cosmos 2227 Rocket 2.3 18:45:25 10° NW 18:50:56 53° WSW 18:56:32 10° SSE
SKYMED 2 3.7 18:47:45 10° S 18:52:04 53° WSW 18:56:19 10° NNW
Cosmos 2237 Rocket 2.7 18:47:03 10° SW 18:52:23 40° WNW 18:57:41 10° N
NOSS 3-2 (A) 4.3 18:45:43 10° NW 18:54:30 54° SW 19:02:12 10° SSE
SMAP 4.5 18:51:12 10° NW 18:54:33 19° W 18:57:56 10° SW
FALCON 9 R/B 4.4 18:38:17 10° WNW 18:58:24 36° NNW 19:04:07 10° NE
Cosmos 1655 Rocket 4.3 18:53:11 10° NNW 18:59:13 48° WSW 19:05:24 10° S
Meteor 1-31 Rocket 3.5 18:56:00 10° NNW 18:59:21 31° W 19:02:44 10° SSW
Cosmos 1300 4.4 18:58:00 10° WSW 18:59:38 13° W 19:01:14 10° WNW
Okean 3 4.3 18:56:46 10° NW 19:00:20 28° WSW 19:03:59 10° SSW
Resurs 01 Rocket 4.3 19:01:44 10° ENE 19:04:41 18° ESE 19:07:40 10° SSE
CZ-4C R/B 4.3 19:01:16 10° WSW 19:05:24 15° SSW 19:09:08 10° S
USA 307 0.8 19:06:41 11° SE 19:06:41 11° SE 19:06:43 10° SE
Cosmos 2315 Rocket 4.3 19:00:35 10° SSW 19:06:34 46° W 19:12:32 10° NNW
Aureole 3 4.0 19:04:35 10° NW 19:07:15 22° WSW 19:09:45 10° SSW
Cosmos 2297 Rocket 3.3 19:02:59 10° WNW 19:07:21 22° SW 19:11:45 10° S
Cosmos 990 Rocket 4.1 19:02:24 10° NNW 19:07:40 88° ENE 19:12:58 10° SSE
SL-16 R/B 2.4 19:02:22 10° SSW 19:08:07 80° ESE 19:13:49 10° NNE
CZ-4 R/B 3.3 19:06:17 10° NE 19:09:35 28° ESE 19:12:57 10° S
Cosmos 2082 4.0 19:04:26 10° NNW 19:10:11 81° ENE 19:15:59 10° SSE
